Wind_Speed
44 45 42 40 40 41 43 44 44 43 43 43 43 43 43 43 41 39 42 44 44 47 44 43 47 44 38 35 32 33 34 33 33 33 34 35 35 37 38 37 38 39 39 40 41 42 42 42 43 43 42 42 41 41 41 40 41 41 41 41 41 42 42 43 44 45 46 47 48 48 48 49 50 51 52 53 53 53 53 53 53 54 54 55 57 58
45 46 41 39 41 43 44 45 44 44 45 45 45 44 44 43 42 41 43 44 45 48 47 45 49 47 41 38 35 35 36 34 34 34 34 35 36 36 36 37 37 38 39 40 41 42 43 44 45 45 44 44 43 43 43 43 42 43 43 42 43 43 44 44 45 46 47 48 49 49 50 50 51 52 53 54 54 53 54 54 54 54 55 57 59 60
47 45 40 40 42 43 44 44 44 45 45 45 45 45 44 43 43 45 44 44 46 49 49 48 51 48 43 41 37 36 39 36 34 35 36 34 34 35 35 36 36 37 38 40 41 43 44 46 47 47 47 46 46 45 45 45 44 44 43 43 44 45 46 46 47 48 49 50 50 51 51 52 52 53 53 54 54 54 54 55 54 55 58 60 61 61
46 43 40 40 42 42 43 43 43 44 45 45 45 45 45 43 45 47 46 46 47 49 50 50 53 50 45 43 37 34 38 40 37 34 34 34 33 34 34 34 34 35 37 39 42 44 46 47 49 49 49 49 48 48 47 46 45 44 44 45 45 46 47 48 49 49 50 51 52 52 52 52 53 53 54 54 54 55 55 55 56 58 60 61 62 61
45 41 39 40 41 42 43 43 43 44 45 46 46 45 45 45 47 48 48 48 48 49 50 51 55 52 46 44 38 33 34 38 41 37 32 34 34 33 32 32 33 35 37 40 43 45 47 49 50 51 52 51 51 50 48 47 46 46 46 46 47 47 48 49 50 50 50 51 52 52 52 52 52 53 54 54 54 55 55 56 57 60 61 62 62 61
43 39 40 40 40 41 42 42 41 43 46 47 46 44 45 46 47 48 48 49 50 50 49 51 55 52 49 47 40 37 35 34 38 41 37 35 35 35 33 31 32 34 36 40 42 45 48 50 52 53 53 53 52 51 49 48 48 47 47 48 48 48 49 50 51 51 51 51 51 51 51 52 53 53 54 54 55 56 56 57 59 61 62 62 62 61
43 39 41 41 40 41 42 41 40 42 46 48 46 44 45 47 47 48 48 49 51 51 50 52 53 53 55 52 44 42 42 37 36 40 42 40 37 36 34 31 31 32 34 38 41 45 49 51 53 53 53 52 52 51 51 50 49 49 49 49 49 49 50 52 52 53 53 53 53 52 52 53 53 54 54 55 56 56 57 59 61 62 62 62 62 60
44 42 42 42 42 43 41 40 40 42 46 48 46 45 46 47 47 49 49 51 52 52 54 53 50 54 60 57 50 47 45 41 37 36 41 44 40 34 31 28 27 29 32 37 42 47 50 51 53 53 52 51 52 52 52 51 50 49 49 49 49 50 52 53 54 55 55 55 54 54 54 54 55 55 56 56 57 57 58 60 61 62 62 62 61 60
46 45 45 44 44 43 42 41 42 44 46 48 48 47 48 48 48 50 51 52 53 53 56 52 47 55 63 61 57 51 44 41 39 35 37 43 40 32 28 27 27 30 34 38 43 47 49 50 52 52 51 51 53 53 52 50 48 47 47 48 49 51 53 54 55 56 56 56 56 56 56 56 56 57 57 57 57 58 59 60 62 62 62 61 60 60
47 47 46 46 45 43 43 44 45 46 48 49 49 49 50 50 50 51 52 53 53 55 56 51 48 56 62 62 58 51 44 43 41 36 33 36 37 32 29 29 31 33 36 39 43 46 48 50 52 53 52 53 54 54 51 48 46 46 47 48 49 51 53 54 55 56 56 56 56 56 57 57 57 57 57 57 57 58 59 61 61 61 61 60 60 60
46 47 47 46 45 44 45 46 46 48 48 48 49 50 50 51 51 52 53 53 54 56 56 52 51 57 61 61 56 50 47 46 42 37 33 32 34 34 34 35 35 34 36 39 43 46 48 50 52 53 53 54 54 52 49 47 46 47 49 50 51 52 53 53 54 55 56 55 55 55 56 57 57 57 57 57 57 58 60 60 60 60 60 59 59 60
46 47 46 45 44 45 45 45 46 47 47 47 48 49 50 51 53 54 54 54 56 58 58 56 56 60 63 60 55 52 50 47 44 39 34 32 33 36 39 39 36 35 38 42 46 48 50 52 54 54 55 54 53 50 48 47 48 50 51 52 51 51 51 52 53 54 54 54 53 54 55 56 55 55 55 56 58 59 59 59 59 59 58 58 59 60
48 47 46 46 45 44 44 44 45 45 45 46 47 48 49 52 54 55 55 56 58 60 60 60 62 64 62 58 54 53 51 48 46 42 36 33 34 38 41 40 37 38 43 47 50 51 53 54 54 55 54 52 50 48 48 48 49 50 50 50 49 50 51 51 52 52 52 53 53 53 54 54 54 54 56 57 58 59 58 58 58 58 57 58 58 60
50 49 48 46 44 44 43 43 44 45 45 47 48 49 51 53 55 56 57 59 62 63 62 63 66 64 60 56 54 55 54 49 47 43 38 37 37 38 41 41 40 43 47 50 53 53 54 54 53 52 51 49 49 49 49 48 48 48 48 49 49 50 50 50 51 52 53 54 54 54 54 54 55 56 57 57 58 58 57 57 57 56 57 57 59 61
51 52 50 46 45 45 45 44 45 46 48 51 51 52 54 55 54 56 60 63 65 65 65 66 67 63 60 58 58 61 60 52 47 43 40 39 39 39 40 41 43 46 49 51 52 53 53 52 51 49 49 50 50 50 48 47 48 48 49 49 48 48 49 51 53 54 55 56 55 55 55 55 56 56 56 57 57 57 57 56 55 56 57 58 60 62
52 54 52 50 49 48 48 48 48 50 53 55 55 57 58 56 54 57 62 65 65 66 65 66 66 62 61 62 62 65 63 55 49 45 43 43 43 42 41 41 44 46 48 49 51 52 52 50 49 49 50 52 51 49 47 47 49 49 48 47 46 47 50 52 55 57 58 58 58 57 56 56 55 56 56 57 57 56 56 55 55 56 57 59 61 63
52 55 54 54 54 53 52 53 53 54 56 58 59 59 59 58 58 61 64 63 64 66 64 64 66 64 63 64 64 65 64 57 51 48 47 47 45 44 42 42 44 45 46 48 50 51 51 49 50 52 53 53 51 49 48 49 50 48 46 46 46 48 51 54 56 58 59 60 59 59 58 57 56 57 57 57 57 56 55 55 56 57 59 61 62 64
53 55 56 56 57 56 55 55 55 56 57 57 57 56 56 58 60 60 61 60 60 64 64 64 67 67 67 68 66 65 64 58 53 52 51 48 45 43 42 42 42 43 45 48 50 51 50 51 53 55 55 53 51 50 49 50 49 46 45 46 48 50 53 55 57 58 59 59 59 59 59 58 58 59 58 58 57 56 56 56 57 59 60 62 63 64
52 54 56 56 57 57 56 56 57 57 57 56 55 54 55 58 59 58 58 58 58 63 67 67 68 70 70 69 67 65 62 60 57 55 53 49 46 44 43 41 42 43 46 49 51 51 51 54 56 57 56 53 51 50 50 49 47 45 47 49 50 53 54 56 57 57 58 59 59 59 59 59 60 60 60 59 57 57 57 57 58 60 61 62 64 65
53 56 57 58 58 59 59 60 60 58 58 58 58 59 59 60 60 59 60 61 61 64 68 68 69 71 69 68 68 63 58 57 55 51 50 50 49 46 44 43 43 45 49 52 53 53 55 57 59 58 56 52 50 49 48 47 46 47 49 51 52 54 55 55 56 57 58 59 59 59 59 59 60 60 60 58 57 57 57 58 59 60 61 63 65 67
56 58 60 59 60 61 61 59 58 57 58 61 61 62 63 63 63 63 63 65 65 65 66 68 70 71 70 71 69 61 54 52 50 47 48 50 49 45 43 44 45 47 52 54 55 57 59 60 59 58 55 52 50 48 46 47 48 50 51 53 53 54 55 55 56 58 58 58 58 58 59 60 60 60 59 57 57 57 58 59 59 60 62 64 67 70
59 60 60 60 62 61 59 57 58 60 61 62 63 63 64 64 64 66 68 67 66 66 66 68 73 73 73 73 69 62 56 52 49 47 48 49 48 45 45 46 47 49 52 54 56 59 60 59 59 57 54 52 51 47 47 49 51 52 53 54 54 55 55 56 57 58 58 58 58 58 58 60 61 60 58 57 57 57 58 59 59 61 64 67 69 72
61 62 61 62 61 59 59 60 63 65 65 66 66 65 64 64 65 67 69 66 65 67 67 70 76 76 74 71 66 60 57 55 51 49 49 49 48 46 48 52 53 53 54 56 59 61 60 59 58 55 54 53 50 48 49 52 53 54 54 54 55 56 55 56 57 57 57 58 58 58 59 61 61 58 56 56 57 57 58 59 61 64 66 69 71 73
60 62 62 62 62 61 62 65 67 69 70 70 68 64 63 63 63 64 66 65 66 69 71 74 79 78 74 68 61 57 57 56 52 49 48 48 48 49 53 56 57 56 57 59 61 60 59 59 57 55 54 53 51 50 52 54 55 55 55 54 55 55 55 56 57 57 58 58 58 60 61 60 58 56 55 56 57 57 58 60 63 66 69 71 73 76
62 63 63 63 64 66 67 69 71 71 70 67 64 62 62 62 62 64 66 67 71 73 72 76 80 77 71 63 56 55 55 53 47 45 46 49 51 53 56 56 56 56 59 61 61 59 59 59 57 55 55 54 52 52 54 56 56 56 55 54 54 55 55 56 57 58 58 58 60 61 60 58 56 55 56 57 57 57 59 63 66 69 71 73 75 79
66 66 66 67 69 71 70 70 68 66 65 64 62 62 63 63 64 66 67 69 74 75 73 76 79 76 66 57 55 53 51 48 45 46 49 51 53 56 56 55 55 57 61 61 60 59 59 58 57 57 56 54 53 55 56 57 58 57 55 54 54 55 56 57 57 58 58 59 60 59 57 56 56 56 56 56 57 59 63 66 69 71 73 75 78 82
67 68 68 69 71 71 69 66 63 62 64 65 63 63 64 64 64 66 68 72 75 75 74 73 74 73 65 58 57 55 51 49 48 48 50 52 55 57 57 55 56 59 61 61 59 59 58 57 57 57 56 55 55 57 59 59 58 56 54 54 55 56 57 57 57 58 58 59 58 57 56 56 57 57 57 57 59 62 66 68 71 73 75 78 81 84
69 70 69 69 71 70 69 66 63 64 67 67 65 65 65 64 65 67 71 74 72 74 77 71 69 73 70 64 62 60 55 54 53 52 52 54 57 59 59 57 58 60 61 60 59 59 58 57 56 56 56 56 58 60 60 59 57 55 55 56 57 58 58 57 58 58 58 57 56 56 57 57 57 57 57 58 61 65 68 70 73 75 77 80 84 85
69 71 69 70 72 71 70 68 66 67 69 68 67 67 66 65 66 70 74 75 73 77 80 73 70 75 73 68 65 62 58 58 56 53 53 55 58 59 59 59 60 62 62 61 59 58 57 56 55 55 57 58 60 61 60 57 55 56 58 59 59 58 58 58 58 57 56 55 56 57 57 57 57 57 57 60 64 67 70 72 75 77 80 83 85 85
71 73 71 71 73 72 70 69 67 68 70 71 70 70 68 68 70 74 76 76 75 78 79 76 75 76 73 69 66 63 60 60 57 53 54 55 56 57 59 60 62 63 63 61 58 57 56 55 55 57 58 59 60 60 58 55 56 59 61 61 60 59 59 59 58 56 55 56 57 57 57 57 57 57 59 62 65 68 71 74 77 80 83 85 85 84
75 75 73 73 75 76 73 71 70 70 72 73 73 71 71 71 73 75 75 73 73 76 77 75 76 77 72 68 66 63 63 61 58 57 59 59 57 58 61 63 64 65 63 59 57 57 57 57 58 58 57 57 58 58 56 56 58 62 62 61 60 60 60 59 57 56 55 55 56 56 56 57 57 58 61 64 67 71 74 77 80 82 84 85 84 82
73 72 72 72 76 78 74 72 71 69 70 71 70 69 69 68 69 70 70 71 72 76 76 76 78 78 73 68 67 66 65 64 62 63 64 62 61 63 65 65 64 63 60 58 58 57 57 57 57 55 55 56 57 56 55 57 60 62 61 61 61 61 61 59 56 55 54 53 54 55 56 58 59 61 63 66 70 73 76 79 81 83 84 84 81 80
68 69 69 69 75 76 72 70 67 62 63 65 65 64 61 61 65 68 70 71 72 74 75 76 77 75 70 68 69 68 66 65 65 64 63 62 62 64 64 62 61 60 58 58 58 57 57 56 55 54 55 56 55 55 56 59 60 60 60 60 61 61 60 58 55 53 52 52 53 55 57 60 62 64 66 68 71 74 77 79 81 83 83 81 79 78
63 64 64 65 70 71 69 67 65 63 65 67 63 57 54 56 62 66 66 65 64 65 69 70 70 68 67 67 68 67 65 64 62 61 61 61 61 61 60 58 59 59 58 58 57 57 56 55 55 55 54 53 53 55 57 59 60 59 59 60 60 60 58 56 54 54 54 54 55 57 59 62 64 66 67 69 72 75 77 79 81 81 80 79 77 77
65 66 66 66 68 69 66 65 67 71 73 70 62 54 52 57 60 61 61 59 57 60 62 63 65 65 64 65 64 63 62 60 59 61 61 58 57 58 58 57 57 58 58 57 57 57 56 55 55 53 49 48 50 53 57 60 60 59 58 58 57 56 55 54 54 55 56 57 59 60 62 64 66 67 68 71 74 76 78 79 80 79 78 77 76 76
68 68 68 67 68 69 68 70 74 77 75 69 63 56 55 58 57 59 63 61 59 59 61 63 63 58 56 60 62 60 58 57 60 61 58 55 56 58 59 59 58 58 58 57 56 56 55 55 53 48 45 45 48 51 56 59 61 59 56 53 52 54 55 56 56 56 57 59 61 63 65 66 67 68 70 72 73 75 77 77 77 76 75 76 76 76
68 68 66 67 69 71 72 75 76 76 74 69 62 58 57 58 58 60 65 65 61 60 62 62 57 50 50 55 56 53 53 55 56 53 50 52 57 60 60 60 59 59 57 56 55 55 55 54 49 46 46 48 50 52 54 58 60 57 54 54 58 61 61 60 58 56 58 59 61 64 66 67 67 69 70 71 72 74 75 74 73 73 74 74 75 76
70 70 69 73 77 75 76 79 80 81 79 70 60 56 55 57 60 64 69 70 64 59 58 55 52 50 50 49 47 49 55 56 52 44 43 50 56 57 58 58 58 58 56 55 55 54 53 51 49 49 51 51 50 51 52 56 59 59 59 62 67 67 64 61 58 57 59 60 61 65 68 69 69 70 70 70 72 73 72 71 71 72 72 73 74 76
80 80 81 84 86 83 83 86 88 90 85 73 64 60 57 60 66 68 73 73 61 52 49 49 51 52 50 45 46 55 62 63 56 48 48 55 57 56 56 56 57 56 55 54 54 54 53 54 54 55 55 54 53 53 54 56 58 60 63 66 67 67 65 61 59 59 60 59 60 63 67 69 69 68 68 69 71 70 70 70 70 71 71 73 75 76
92 92 92 92 93 91 90 91 91 93 92 83 74 69 68 72 75 77 81 77 60 51 52 56 56 55 51 49 54 61 64 65 63 59 58 60 60 59 60 61 61 61 60 60 59 58 59 58 58 57 58 59 60 62 62 62 62 62 63 65 67 68 65 61 60 60 60 59 60 61 63 64 65 66 67 69 68 68 68 69 69 70 71 73 75 76
99 100 99 96 94 92 91 91 91 92 94 90 83 80 80 81 83 88 90 82 70 65 67 67 66 65 62 60 64 66 63 61 63 63 61 61 62 63 64 65 65 65 65 64 65 67 67 64 61 60 60 63 67 69 67 66 66 64 64 65 67 65 62 60 60 61 62 62 60 59 59 61 63 66 67 66 66 67 68 68 68 70 71 73 74 75
99 99 97 95 94 95 95 94 91 92 97 96 90 88 86 83 88 93 89 79 74 74 72 70 70 71 70 71 72 70 64 59 59 60 59 60 63 63 63 64 63 63 64 67 70 73 72 67 63 62 63 67 72 72 68 66 66 65 65 66 65 62 61 61 61 62 64 63 58 57 59 62 64 66 65 64 65 67 67 67 69 70 71 73 74 74
94 92 92 94 96 97 98 95 92 95 99 96 87 84 84 85 89 91 83 75 74 73 70 71 72 72 73 75 74 70 65 61 58 57 58 60 61 59 60 61 63 64 66 69 71 72 69 64 62 62 66 71 73 69 65 64 65 65 66 68 68 66 65 64 62 63 64 60 56 57 61 63 65 64 63 63 65 66 66 67 68 70 71 72 73 73
88 86 88 91 92 92 93 93 93 93 90 82 75 76 81 84 84 82 79 77 76 73 71 73 73 72 73 75 72 67 65 63 60 59 59 59 58 58 60 62 64 67 68 69 68 66 63 60 61 66 72 75 72 67 65 64 65 67 69 70 71 71 69 67 65 63 60 57 57 60 62 64 63 62 62 63 64 64 65 67 68 69 71 71 72 72
87 83 82 83 84 85 87 89 89 88 83 80 80 80 80 80 79 78 77 77 76 74 72 71 71 72 73 75 73 68 64 63 62 59 58 57 58 60 63 65 66 68 68 66 63 61 60 61 67 76 80 77 72 69 66 64 65 67 69 71 72 72 70 69 66 61 56 56 59 62 63 63 61 60 61 63 63 64 65 66 67 69 70 70 71 71
89 86 85 87 88 89 90 89 85 83 82 82 83 83 83 83 83 81 80 79 78 76 75 75 77 79 79 78 74 68 64 64 64 62 60 59 60 62 64 66 68 67 66 63 61 62 67 72 80 84 81 76 72 69 66 65 67 68 69 70 70 68 69 68 64 58 55 58 62 63 63 61 59 59 61 62 63 64 65 66 67 68 68 68 68 67
89 88 88 89 90 91 93 92 88 86 86 85 86 87 88 87 86 84 83 84 83 82 82 83 84 83 81 76 70 64 62 63 65 66 64 63 64 64 65 66 66 64 64 65 67 73 80 85 87 84 77 73 69 66 65 66 67 67 66 65 65 66 67 65 60 56 57 60 63 64 62 59 58 59 60 61 62 64 65 66 67 66 65 65 64 64
87 87 87 87 87 88 89 88 84 83 84 84 85 87 87 86 86 85 85 86 87 86 83 79 76 75 74 72 69 67 66 67 70 72 71 71 72 72 71 70 68 66 67 70 75 84 90 89 84 77 71 68 65 63 65 67 65 63 61 61 64 66 63 58 55 56 59 62 64 63 60 57 57 59 60 61 62 64 65 65 65 64 63 62 61 61
93 94 93 91 92 92 91 87 84 83 84 84 85 87 88 84 80 77 74 73 74 77 79 78 77 75 75 75 75 76 78 81 83 82 82 81 81 80 79 77 75 74 76 79 85 91 90 84 77 71 67 64 63 64 66 66 64 61 59 61 64 63 57 54 55 57 59 62 63 60 57 56 57 58 59 61 63 64 64 63 63 62 61 60 59 58
97 99 98 98 100 100 97 94 93 93 93 91 90 89 88 84 79 76 74 72 71 76 81 85 85 84 83 84 85 88 92 95 93 91 90 89 88 87 86 85 85 86 88 90 91 88 82 76 72 68 65 64 63 65 67 66 63 60 59 62 63 60 56 57 57 57 59 62 61 57 56 56 57 58 60 62 63 63 62 60 58 57 56 56 55 55
91 92 91 93 97 99 97 95 93 93 93 94 92 90 88 88 88 88 89 89 88 90 92 93 95 96 97 98 99 99 99 98 95 93 93 91 90 90 91 91 91 90 89 87 83 79 75 72 70 68 66 64 64 66 67 66 62 59 59 61 61 60 60 60 59 58 60 61 59 56 56 56 57 58 60 62 62 62 60 57 54 52 50 50 51 52
Wind_Direction
280 279 281 284 284 282 282 284 285 286 286 287 287 287 287 288 289 290 287 287 288 288 289 290 288 289 291 293 295 295 295 298 300 298 297 297 297 297 297 295 293 292 293 293 294 293 293 293 292 292 293 294 295 295 295 294 293 292 292 293 292 291 290 289 288 287 286 285 284 283 283 283 283 282 282 283 284 284 285 285 285 285 286 287 289 291
280 280 282 284 282 281 282 283 284 285 285 286 286 286 287 288 289 288 286 287 288 288 289 290 288 289 291 293 295 296 295 297 298 296 295 296 297 298 297 296 295 294 293 292 292 291 291 291 291 292 292 293 294 295 295 295 293 292 292 293 292 292 292 291 290 288 287 285 284 283 283 283 283 282 282 283 283 284 285 286 286 286 287 289 291 292
279 281 284 282 280 281 282 283 284 285 285 286 287 287 287 289 289 287 286 288 288 288 289 290 288 289 291 292 294 297 297 297 296 295 296 297 298 298 297 297 296 294 292 290 290 290 290 291 291 292 293 294 294 295 296 295 294 293 293 293 293 293 293 293 292 290 289 287 285 284 282 282 282 281 282 283 283 284 285 285 285 287 289 290 291 292
280 282 284 282 281 282 282 283 284 285 285 286 286 287 289 290 289 287 288 289 288 289 291 291 290 290 291 291 293 296 298 299 296 294 296 298 299 299 299 299 297 293 291 290 289 289 290 291 292 292 293 294 294 294 295 294 294 293 293 294 294 294 294 293 292 291 290 288 286 284 282 281 281 281 282 282 283 284 285 285 286 288 290 291 292 292
280 283 283 282 282 282 282 283 284 285 286 286 286 288 289 289 288 288 290 290 289 290 292 293 292 291 292 291 292 294 296 298 298 299 300 301 300 299 300 301 298 294 291 289 288 289 290 290 290 290 291 292 292 293 293 293 293 293 294 294 295 295 294 293 293 292 292 290 287 285 283 282 281 281 282 282 283 284 284 284 286 289 291 291 292 292
281 283 283 283 283 283 283 283 284 286 286 285 286 288 288 288 288 289 290 291 291 291 293 294 294 295 295 293 294 298 298 298 301 305 308 305 303 302 302 300 294 289 285 284 285 287 288 288 288 288 289 290 290 291 291 291 292 293 294 295 295 295 295 295 295 295 294 293 291 288 285 283 282 281 281 282 283 284 284 285 287 290 291 292 292 292
282 284 283 283 283 282 282 284 286 286 285 284 286 287 287 287 288 289 290 291 291 293 294 292 295 299 296 293 298 303 301 302 305 308 309 307 306 305 302 296 289 282 278 279 283 285 286 286 286 287 287 288 289 289 290 291 293 294 295 295 296 296 296 297 297 297 296 294 293 290 286 284 282 282 282 282 284 285 285 286 289 291 292 292 292 292
283 283 281 282 281 281 282 285 285 283 282 284 285 285 285 286 288 289 289 290 291 293 292 291 297 299 294 294 299 300 300 305 308 309 308 307 308 306 300 292 284 278 278 281 284 285 285 284 285 285 286 287 288 288 290 292 295 296 297 297 297 296 296 296 297 297 297 296 293 290 287 284 282 282 282 283 285 285 286 288 290 292 292 292 292 291
280 279 279 279 279 281 283 283 282 281 281 283 284 285 285 286 287 287 288 289 290 291 290 294 300 297 293 294 297 297 302 306 307 310 308 306 308 306 298 290 284 282 284 285 284 284 283 283 284 285 286 288 288 289 291 295 297 298 299 298 297 295 294 294 294 295 296 295 293 290 287 284 283 282 283 284 285 286 287 289 291 292 292 293 292 291
278 279 278 277 278 280 281 280 280 279 279 281 284 285 286 286 286 286 286 287 288 289 291 297 299 294 293 293 293 298 305 305 306 311 308 304 304 302 297 292 289 289 288 286 284 283 283 284 285 286 287 288 288 290 294 296 298 299 300 298 297 295 294 293 294 294 295 295 293 289 286 284 283 283 284 285 285 286 288 290 291 292 293 293 292 291
277 277 277 278 279 279 278 277 277 278 279 281 283 284 285 285 284 284 284 285 286 288 293 296 295 292 290 290 294 302 305 304 307 310 310 306 301 299 298 296 296 295 290 286 284 283 284 285 286 287 288 288 289 292 295 297 298 299 298 296 295 294 294 294 295 295 295 295 292 289 286 284 283 284 285 286 287 288 289 291 292 293 293 292 292 291
276 276 277 278 277 276 276 277 277 278 279 281 282 282 283 282 282 281 282 283 285 289 293 293 291 289 286 288 296 301 301 303 306 308 311 308 302 301 301 300 300 297 291 287 286 286 286 287 287 287 287 289 291 294 295 297 299 298 296 295 295 295 295 295 296 296 296 296 293 290 287 286 285 286 286 287 288 289 291 292 292 292 292 292 292 292
274 275 275 274 275 277 278 278 278 278 279 279 279 279 279 279 279 280 282 285 286 288 290 290 289 286 285 288 295 297 298 301 303 307 311 307 304 304 302 301 300 295 290 288 288 288 288 288 287 287 288 291 294 296 298 300 300 297 296 296 297 297 298 298 298 298 297 296 294 292 290 289 288 288 288 289 290 291 292 292 292 292 292 292 292 293
273 273 273 275 276 277 276 276 277 277 277 276 275 275 275 275 276 280 285 286 285 287 288 288 287 285 287 292 295 294 295 297 301 307 308 305 306 305 301 299 296 293 291 290 290 290 289 287 287 288 291 294 296 299 302 301 298 296 296 297 299 299 300 300 300 299 298 297 295 293 292 291 290 290 290 291 292 292 292 292 291 292 292 293 293 294
274 273 274 275 275 274 274 275 275 274 274 273 273 273 273 274 277 280 283 283 284 286 287 285 284 285 290 294 295 294 293 297 303 305 303 305 307 304 298 295 294 294 294 292 290 288 286 286 288 291 293 295 298 301 302 299 296 296 297 298 299 300 301 301 300 299 298 297 296 295 294 293 292 292 292 292 292 292 292 292 292 293 293 294 294 294
275 274 274 275 274 273 273 273 272 272 272 273 274 274 275 278 278 278 279 281 284 285 284 282 283 287 291 293 293 292 294 300 304 302 303 307 306 301 295 295 296 297 294 290 287 284 285 287 290 293 294 295 299 301 299 296 295 296 297 298 299 300 300 300 298 298 298 298 298 297 295 294 293 293 293 293 292 292 292 293 294 294 294 294 294 294
275 274 274 275 275 274 273 272 272 272 273 274 275 277 279 280 278 276 277 280 282 282 281 283 286 290 291 290 290 291 295 300 302 302 306 307 303 299 297 297 299 296 291 286 284 284 286 290 293 294 294 296 298 298 296 295 295 296 297 298 299 299 298 297 297 297 298 298 298 297 296 295 295 294 294 293 293 293 293 294 294 295 295 294 294 294
274 274 273 273 274 274 273 274 274 273 273 274 275 278 279 278 277 277 278 279 280 279 280 284 288 289 289 288 289 292 295 299 301 305 308 305 300 299 297 297 297 291 285 282 282 284 288 292 294 293 294 296 297 296 295 295 295 295 297 298 298 298 297 297 297 297 297 297 297 297 297 296 296 295 294 294 294 294 294 294 295 295 294 294 295 296
275 275 273 271 273 274 274 274 272 272 273 275 277 277 276 277 277 277 278 279 279 279 280 284 287 287 286 287 289 291 295 299 304 307 306 301 299 299 296 295 293 286 280 279 281 284 288 292 292 293 295 297 297 296 296 295 295 296 296 297 297 296 296 296 296 296 297 297 297 297 297 297 296 295 294 294 294 294 294 294 294 294 294 295 296 297
276 275 274 273 274 274 274 272 272 275 276 276 275 274 274 274 275 276 276 277 278 278 280 284 286 285 285 286 287 290 297 303 305 305 301 297 296 297 296 294 291 284 279 279 282 285 289 291 293 296 298 298 298 297 296 294 295 295 295 295 295 295 295 295 295 296 296 297 298 298 297 296 295 295 294 294 294 294 294 294 294 294 296 297 297 297
273 273 273 273 273 273 274 276 278 279 277 275 274 273 272 272 274 275 275 275 276 276 279 282 283 285 288 288 289 295 303 306 304 300 297 294 294 296 296 293 288 282 279 281 284 286 289 291 295 299 299 298 297 296 294 294 294 294 294 295 295 295 295 294 294 295 296 297 297 297 296 296 295 295 294 294 293 293 293 293 294 296 297 297 296 296
272 271 270 270 271 274 277 279 278 276 274 274 274 273 273 274 274 274 274 276 277 277 280 279 278 283 288 289 293 300 304 304 302 298 295 293 293 294 294 292 287 281 279 281 283 285 288 293 297 298 297 296 295 293 292 293 293 293 294 294 294 294 294 293 294 294 295 295 295 295 295 295 295 294 294 293 293 293 293 295 296 297 297 296 296 296
273 271 270 272 274 276 276 275 274 274 274 273 273 274 276 277 277 277 277 280 280 277 277 275 273 279 285 287 292 298 299 299 298 297 294 292 291 293 293 291 287 283 282 282 283 286 290 294 295 294 294 293 292 291 291 291 291 292 293 293 293 293 292 292 293 294 294 294 293 294 294 294 294 293 293 292 292 293 295 296 297 297 297 297 296 296
273 273 274 275 276 275 274 274 274 274 274 275 278 280 280 279 279 279 279 279 276 274 274 273 272 277 282 286 291 295 294 294 295 295 292 288 289 291 290 288 285 283 282 282 283 287 290 291 292 291 291 291 290 289 289 290 291 292 292 292 292 292 291 292 293 293 293 292 292 293 293 293 292 291 291 291 292 294 295 296 297 296 296 297 297 297
271 271 272 273 273 272 273 274 275 277 279 280 281 280 278 277 276 275 275 275 274 274 275 274 274 279 285 289 293 294 292 292 295 294 289 286 288 288 285 283 281 280 280 282 285 287 288 290 291 290 290 291 289 287 288 290 291 291 291 291 291 290 291 291 291 291 291 291 292 292 291 290 289 289 290 292 293 295 295 296 296 296 296 297 297 298
270 269 269 269 269 270 273 276 278 280 280 278 277 276 274 274 273 274 275 274 275 277 277 276 279 285 290 293 294 293 292 294 297 293 288 287 287 285 283 281 278 278 281 284 286 286 288 290 291 290 291 290 287 286 288 290 289 290 290 290 289 290 290 290 290 290 290 291 291 290 288 288 288 290 291 292 293 294 295 295 296 296 297 298 298 299
270 269 269 268 269 270 273 275 277 276 274 273 274 274 273 273 273 273 273 274 277 280 279 280 286 290 293 296 294 292 294 298 297 291 288 287 285 284 284 280 277 279 283 285 284 285 288 290 290 291 291 289 286 287 289 289 288 289 289 289 289 289 289 289 289 289 290 290 288 287 287 288 289 290 291 292 294 295 296 296 296 297 297 298 299 300
269 269 269 269 269 270 271 273 274 272 270 270 272 272 273 273 272 272 274 277 280 279 279 285 291 290 291 294 292 292 296 298 295 290 286 284 283 284 282 279 278 280 283 283 282 284 288 290 290 290 289 287 286 287 288 287 288 289 289 289 289 289 289 289 289 289 288 287 286 286 287 288 289 290 291 294 296 297 297 297 297 297 298 299 300 300
267 267 268 269 270 271 271 272 272 270 268 269 270 271 272 272 273 275 277 279 279 279 283 289 291 288 289 291 292 293 296 295 292 288 285 284 284 283 280 277 278 280 282 282 282 285 287 288 287 286 285 285 287 287 287 287 288 290 290 290 289 288 288 288 287 286 286 285 285 287 287 288 289 290 293 296 298 298 297 297 297 297 298 299 301 301
266 267 269 270 271 271 270 270 269 268 267 269 270 271 271 273 274 275 275 277 280 282 286 289 287 285 287 290 291 293 293 292 289 287 286 287 286 282 277 275 276 280 284 284 282 284 285 284 283 283 284 287 288 288 287 287 289 291 291 289 288 287 287 286 285 284 285 285 286 287 287 288 290 291 294 297 298 298 297 297 297 297 298 300 302 302
267 268 269 270 270 268 268 270 270 268 268 268 268 268 271 274 273 273 276 279 282 284 285 286 283 283 286 289 289 289 291 291 289 288 289 289 285 279 275 276 280 284 284 281 280 281 280 279 281 283 287 289 289 287 286 287 289 291 291 289 287 287 286 284 283 284 285 286 287 287 288 290 291 292 295 297 297 297 297 296 296 297 299 301 302 301
265 266 268 268 266 266 268 269 268 268 268 266 264 267 272 274 274 276 278 280 281 281 281 280 281 283 287 288 287 289 292 291 289 288 289 287 282 277 277 280 283 282 279 277 277 277 277 278 281 285 287 288 286 284 284 287 290 292 290 288 287 287 284 282 283 286 288 289 289 290 291 292 292 293 294 295 296 296 296 296 296 298 300 302 302 301
264 266 267 267 266 267 268 267 266 266 266 265 266 270 273 274 275 276 278 279 280 279 279 279 280 284 286 287 288 292 291 288 285 284 285 284 281 277 277 280 278 274 272 273 274 275 276 278 281 284 286 285 283 283 286 289 292 292 291 289 287 285 282 280 283 287 290 292 293 294 294 294 293 293 293 294 294 295 296 296 298 300 301 302 302 302
262 265 267 267 267 269 269 266 263 261 262 266 270 273 275 276 277 277 278 280 281 280 279 279 282 287 288 288 290 290 286 282 281 281 283 284 279 275 275 276 273 270 270 271 273 275 276 278 281 283 283 282 283 285 289 291 292 292 290 287 285 282 280 280 284 289 291 293 294 296 296 295 294 293 292 293 295 296 297 298 300 301 302 302 302 303
262 263 266 266 266 267 267 265 261 261 266 271 272 272 275 277 278 280 282 283 283 280 278 281 288 290 288 286 286 283 280 279 279 280 284 283 277 273 275 275 272 270 271 273 274 275 277 279 282 282 283 285 289 292 293 293 292 290 287 283 282 281 281 283 287 289 290 292 294 295 296 295 294 293 293 294 296 297 299 300 301 302 302 303 303 304
262 263 263 263 264 266 267 264 263 266 269 270 268 269 273 277 281 283 283 280 278 276 280 286 289 285 280 280 280 277 277 279 279 280 284 281 277 276 277 276 275 274 275 276 276 277 279 281 281 283 287 293 298 300 298 295 291 287 283 282 284 286 287 288 289 289 290 291 293 294 294 293 291 291 293 296 297 299 300 301 302 303 304 304 304 304
261 262 263 264 266 267 269 269 270 272 271 268 268 271 276 281 284 281 276 273 272 277 286 288 282 274 273 276 276 277 282 283 280 281 284 282 278 278 279 279 278 277 277 277 277 278 280 280 280 284 292 300 303 303 300 295 290 285 283 286 290 293 293 291 289 289 290 291 293 293 291 288 287 289 293 296 298 300 301 302 303 304 304 304 304 304
262 263 265 269 270 270 272 274 276 276 273 269 270 277 283 285 282 276 270 269 274 284 289 282 271 269 271 272 277 286 289 285 279 281 288 286 281 280 280 280 278 277 276 276 278 279 279 279 283 289 297 304 305 302 297 294 290 287 287 289 292 294 293 291 289 289 291 293 294 292 288 285 287 291 295 298 299 301 302 303 304 304 304 304 305 305
264 266 268 271 273 273 274 275 276 276 274 271 271 276 281 281 279 275 268 267 279 292 286 269 263 266 267 269 280 290 291 288 284 284 287 287 284 281 282 281 279 279 277 277 278 279 280 283 288 293 300 306 306 302 296 292 290 288 288 290 292 292 291 289 289 290 291 292 292 290 286 286 289 293 296 298 300 302 303 304 304 304 305 305 305 306
266 269 271 273 274 275 275 276 276 277 277 276 275 276 277 277 276 272 268 272 286 294 280 268 267 267 266 268 278 288 293 292 290 290 290 289 286 285 285 283 281 281 280 280 280 282 284 288 291 296 301 305 307 306 302 297 292 289 290 292 292 291 290 288 289 291 291 292 292 291 289 289 292 295 297 299 301 302 304 305 305 305 305 305 306 306
268 270 272 274 275 275 275 276 277 278 279 280 280 280 279 276 271 269 272 279 286 283 276 275 273 271 270 271 277 287 294 291 289 292 292 290 289 290 288 283 280 280 280 280 282 285 287 289 291 295 299 303 307 307 304 300 295 291 292 293 291 290 289 289 291 293 292 291 292 292 291 292 294 296 298 300 301 303 304 305 305 305 305 305 306 306
268 270 272 273 274 275 276 277 278 278 278 279 281 282 279 274 272 276 281 283 281 277 275 275 273 273 274 275 278 286 291 287 283 284 284 284 287 288 284 280 278 278 278 279 280 282 284 286 290 294 297 302 305 305 303 300 296 293 292 291 290 292 293 292 294 294 290 288 290 292 292 293 294 297 299 300 302 303 304 305 306 305 305 305 305 304
268 269 270 271 272 274 275 276 276 277 278 280 282 281 278 276 278 283 284 282 278 276 274 273 273 273 275 277 280 285 287 284 280 277 275 276 278 278 276 275 276 277 277 278 278 278 281 285 288 290 294 299 302 301 298 296 293 292 291 289 291 294 294 295 296 293 287 286 291 293 293 294 295 297 299 300 301 303 305 306 306 306 305 304 303 303
268 267 268 269 270 270 271 272 273 275 278 280 278 276 276 278 281 282 281 279 278 277 275 275 275 274 275 279 282 284 284 283 280 277 274 272 273 273 272 274 276 278 278 278 276 276 279 281 284 289 296 300 300 299 296 293 291 291 291 290 291 293 293 295 296 290 284 287 293 294 294 295 296 297 298 299 301 303 305 306 306 305 304 303 302 301
266 265 266 268 269 268 268 270 271 273 274 274 273 272 274 277 279 279 277 276 276 276 276 276 276 276 278 280 282 283 282 280 278 276 273 271 272 273 275 276 278 279 278 275 275 276 278 281 288 297 301 302 300 298 297 295 292 290 290 291 292 292 293 294 292 286 283 288 292 293 294 295 295 296 297 299 301 303 304 305 304 304 302 301 300 300
267 267 267 267 268 269 269 270 270 272 272 273 274 275 274 274 275 275 274 274 274 275 275 275 276 277 278 279 280 281 280 279 277 275 272 271 273 274 276 277 276 275 273 272 275 281 286 290 296 300 301 299 298 298 297 295 293 292 291 292 291 291 292 291 287 282 283 287 291 292 293 293 294 295 297 299 301 302 303 303 303 302 300 299 299 299
269 270 269 269 269 270 271 271 271 272 273 273 274 274 274 273 273 272 273 274 275 275 275 276 276 277 277 277 278 279 279 279 278 277 275 275 274 274 275 275 273 271 271 275 281 289 293 297 298 298 298 296 295 295 296 295 294 293 293 293 292 292 290 286 282 281 283 287 290 291 291 291 293 295 296 298 300 301 301 301 300 299 298 297 297 299
267 268 268 269 270 270 271 271 272 272 272 273 273 273 274 275 275 275 276 276 276 276 276 276 275 275 275 275 277 278 278 279 279 280 279 278 277 277 277 276 274 273 276 279 285 291 294 296 295 295 294 293 292 293 294 294 293 293 293 293 292 290 285 281 281 283 286 288 288 288 288 290 293 295 296 297 298 299 299 299 298 296 295 295 297 299
262 263 263 265 267 269 269 270 271 271 271 271 272 274 276 277 277 277 277 276 275 275 274 273 273 273 273 274 276 278 279 280 282 281 280 279 278 278 278 277 276 276 277 280 284 288 291 292 291 291 292 291 290 291 292 291 290 290 290 291 290 285 280 281 286 288 288 287 286 285 288 291 293 295 296 297 297 297 297 296 295 295 294 295 297 300
261 262 263 265 266 267 268 270 271 272 271 270 271 272 272 271 271 270 269 268 268 269 270 271 272 272 272 274 276 277 278 280 281 280 278 277 277 277 277 276 276 276 278 281 284 286 288 288 289 290 290 289 289 289 289 288 287 286 287 289 287 280 278 286 291 290 287 284 284 286 289 291 293 294 295 296 296 296 295 294 293 293 294 296 298 302
259 261 263 264 266 267 268 269 269 268 268 269 269 268 267 266 266 266 266 266 266 268 269 271 273 274 275 277 277 277 278 279 279 278 277 277 277 276 277 276 277 279 281 282 284 285 286 287 288 290 290 289 288 287 286 285 284 284 286 288 285 278 280 288 291 287 283 281 282 285 288 290 292 294 294 295 295 294 293 291 290 291 293 297 301 305
Height
5843 5842 5845 5847 5846 5843 5841 5840 5840 5839 5838 5837 5836 5834 5833 5832 5833 5833 5827 5824 5822 5816 5818 5819 5813 5815 5819 5821 5822 5821 5819 5818 5817 5815 5813 5811 5808 5805 5802 5800 5798 5796 5794 5792 5790 5788 5786 5784 5782 5781 5780 5779 5777 5776 5774 5773 5771 5769 5767 5766 5764 5762 5761 5759 5758 5756 5754 5753 5751 5750 5749 5748 5746 5744 5743 5742 5740 5738 5737 5736 5735 5733 5732 5730 5729 5727
5838 5837 5841 5843 5840 5838 5837 5836 5835 5834 5833 5831 5830 5829 5828 5828 5828 5826 5822 5820 5818 5812 5813 5814 5808 5809 5814 5815 5817 5816 5813 5814 5812 5810 5809 5807 5804 5801 5799 5796 5794 5792 5790 5787 5785 5782 5781 5779 5777 5776 5775 5773 5772 5771 5769 5768 5766 5764 5762 5761 5759 5757 5755 5754 5752 5750 5748 5747 5745 5744 5743 5741 5740 5738 5736 5735 5733 5732 5731 5729 5728 5726 5725 5723 5721 5719
5831 5832 5837 5837 5834 5833 5832 5830 5830 5828 5827 5826 5825 5823 5823 5824 5821 5819 5818 5816 5813 5808 5807 5807 5802 5803 5808 5809 5812 5811 5807 5808 5808 5806 5804 5803 5800 5797 5795 5793 5790 5788 5785 5783 5780 5777 5775 5773 5771 5770 5768 5767 5766 5765 5763 5762 5760 5758 5757 5755 5753 5751 5750 5748 5746 5744 5743 5741 5740 5738 5736 5735 5733 5732 5730 5728 5727 5725 5724 5722 5721 5719 5717 5715 5714 5712
5825 5829 5832 5830 5829 5828 5826 5826 5825 5823 5822 5820 5819 5818 5818 5819 5815 5811 5812 5811 5808 5804 5801 5800 5794 5796 5801 5802 5806 5808 5803 5801 5801 5802 5801 5798 5796 5794 5791 5789 5786 5783 5781 5778 5775 5772 5770 5768 5765 5764 5762 5761 5760 5759 5758 5756 5754 5753 5752 5750 5748 5746 5744 5742 5740 5739 5737 5735 5733 5732 5730 5728 5726 5725 5723 5721 5720 5719 5717 5715 5714 5712 5710 5708 5706 5704
5821 5825 5826 5825 5824 5822 5821 5821 5820 5818 5816 5814 5814 5814 5813 5812 5809 5806 5805 5804 5802 5800 5797 5794 5786 5786 5792 5795 5800 5804 5802 5797 5793 5795 5797 5794 5791 5789 5787 5785 5782 5779 5776 5773 5770 5767 5765 5763 5760 5759 5757 5756 5754 5753 5752 5750 5749 5748 5746 5745 5743 5741 5739 5737 5735 5733 5731 5729 5727 5725 5723 5722 5720 5718 5716 5715 5713 5712 5710 5708 5706 5704 5702 5700 5698 5696
5817 5821 5820 5819 5819 5817 5816 5815 5816 5814 5810 5807 5808 5809 5808 5805 5803 5801 5799 5797 5794 5793 5793 5789 5782 5777 5779 5783 5790 5795 5797 5796 5791 5787 5788 5788 5785 5783 5782 5780 5778 5775 5772 5769 5766 5763 5760 5758 5756 5754 5752 5750 5749 5747 5746 5745 5744 5743 5741 5740 5738 5735 5733 5731 5728 5726 5725 5723 5721 5719 5717 5715 5713 5711 5710 5708 5706 5705 5703 5701 5698 5696 5694 5692 5690 5688
5813 5817 5814 5814 5813 5812 5811 5811 5812 5810 5804 5801 5803 5805 5803 5800 5798 5796 5794 5792 5788 5787 5786 5784 5782 5773 5766 5770 5780 5785 5786 5789 5789 5785 5780 5779 5779 5777 5775 5774 5772 5770 5768 5765 5762 5759 5756 5753 5750 5748 5747 5745 5743 5742 5740 5739 5739 5737 5736 5734 5732 5729 5727 5724 5722 5720 5718 5716 5714 5712 5710 5708 5706 5705 5703 5701 5699 5697 5696 5693 5690 5688 5686 5684 5681 5679
5809 5810 5809 5808 5807 5806 5806 5807 5807 5805 5799 5796 5797 5799 5797 5795 5794 5791 5789 5786 5783 5782 5777 5778 5783 5771 5754 5758 5771 5777 5779 5780 5783 5783 5776 5771 5771 5771 5769 5767 5766 5764 5763 5760 5757 5753 5750 5747 5745 5743 5741 5740 5737 5736 5735 5734 5733 5732 5730 5728 5726 5723 5721 5718 5716 5713 5711 5709 5708 5706 5703 5701 5699 5698 5696 5694 5692 5690 5688 5686 5682 5680 5677 5675 5673 5671
5804 5803 5803 5803 5801 5801 5802 5801 5801 5799 5795 5792 5792 5792 5791 5791 5789 5786 5784 5781 5779 5776 5769 5773 5781 5768 5748 5750 5760 5767 5773 5775 5776 5778 5774 5766 5763 5763 5762 5761 5760 5759 5757 5755 5751 5747 5744 5742 5739 5737 5735 5734 5731 5729 5729 5729 5728 5726 5724 5722 5720 5717 5714 5712 5710 5707 5705 5703 5701 5699 5696 5694 5692 5690 5689 5687 5685 5683 5681 5678 5675 5672 5669 5667 5666 5663
5798 5797 5797 5796 5797 5797 5797 5795 5794 5792 5790 5788 5787 5786 5785 5784 5782 5780 5778 5776 5775 5769 5764 5770 5775 5765 5747 5741 5749 5759 5765 5767 5768 5771 5770 5764 5759 5757 5756 5755 5754 5754 5752 5748 5745 5741 5739 5736 5733 5731 5729 5727 5725 5724 5723 5723 5722 5720 5718 5716 5713 5710 5707 5705 5703 5700 5698 5696 5694 5691 5689 5687 5685 5683 5682 5680 5678 5676 5673 5671 5668 5665 5662 5660 5657 5655
5792 5791 5791 5791 5792 5792 5791 5790 5788 5787 5785 5784 5783 5780 5779 5778 5775 5774 5771 5771 5769 5761 5760 5766 5767 5762 5747 5734 5741 5753 5757 5758 5761 5763 5763 5760 5756 5752 5750 5749 5748 5747 5744 5741 5738 5735 5733 5730 5727 5724 5722 5720 5718 5718 5717 5716 5715 5713 5711 5709 5706 5703 5700 5698 5696 5693 5691 5689 5686 5684 5682 5680 5678 5676 5674 5673 5671 5668 5666 5663 5660 5657 5654 5652 5649 5647
5786 5785 5785 5786 5786 5785 5785 5784 5783 5782 5780 5779 5778 5776 5774 5771 5768 5766 5765 5765 5762 5755 5756 5758 5758 5754 5741 5733 5741 5748 5748 5751 5753 5755 5757 5754 5751 5747 5744 5742 5741 5740 5737 5733 5730 5728 5726 5723 5720 5717 5715 5713 5712 5712 5711 5710 5709 5707 5704 5701 5698 5696 5693 5691 5689 5686 5684 5681 5679 5676 5674 5673 5671 5670 5667 5665 5663 5661 5658 5655 5652 5649 5646 5644 5641 5638
5779 5779 5779 5778 5779 5780 5779 5778 5777 5776 5775 5774 5772 5770 5768 5764 5761 5759 5759 5759 5754 5751 5751 5750 5747 5741 5732 5733 5742 5742 5742 5746 5746 5748 5751 5748 5746 5743 5738 5736 5734 5732 5728 5725 5723 5721 5719 5716 5713 5710 5708 5707 5706 5705 5704 5703 5701 5699 5696 5694 5691 5689 5686 5684 5681 5679 5676 5674 5671 5669 5667 5666 5664 5662 5660 5658 5655 5653 5650 5647 5644 5641 5638 5636 5633 5630
5771 5772 5772 5772 5773 5774 5772 5772 5771 5769 5769 5767 5765 5764 5761 5758 5755 5753 5754 5751 5746 5744 5745 5743 5738 5730 5726 5731 5737 5734 5736 5741 5742 5743 5744 5741 5741 5739 5735 5730 5726 5724 5721 5718 5716 5713 5711 5708 5705 5704 5703 5701 5699 5698 5697 5696 5694 5691 5689 5687 5684 5682 5679 5677 5674 5671 5669 5667 5664 5663 5661 5659 5657 5655 5652 5650 5647 5645 5642 5639 5636 5633 5631 5628 5625 5622
5763 5763 5765 5766 5766 5767 5765 5765 5764 5762 5761 5759 5758 5757 5753 5753 5752 5749 5748 5743 5738 5738 5736 5732 5728 5723 5722 5726 5727 5723 5726 5734 5738 5738 5737 5736 5735 5733 5729 5725 5720 5717 5715 5711 5708 5705 5702 5701 5699 5698 5697 5695 5693 5692 5690 5689 5686 5684 5682 5679 5677 5675 5672 5670 5667 5665 5663 5660 5658 5656 5654 5652 5650 5647 5645 5642 5639 5637 5634 5631 5628 5625 5622 5620 5617 5614
5756 5755 5758 5757 5757 5760 5759 5758 5757 5755 5753 5751 5751 5748 5746 5749 5748 5743 5740 5737 5734 5732 5727 5722 5719 5720 5721 5720 5718 5714 5717 5727 5732 5731 5730 5729 5728 5726 5722 5718 5714 5711 5708 5704 5700 5697 5695 5694 5694 5692 5690 5688 5686 5685 5683 5681 5679 5677 5674 5672 5670 5668 5666 5663 5661 5659 5656 5654 5652 5649 5647 5644 5642 5639 5637 5634 5631 5629 5626 5623 5620 5617 5614 5612 5609 5606
5749 5747 5750 5749 5748 5751 5750 5749 5750 5748 5745 5745 5744 5742 5742 5743 5740 5734 5731 5732 5730 5724 5720 5716 5712 5714 5715 5711 5710 5710 5712 5721 5725 5724 5724 5723 5720 5717 5713 5710 5708 5705 5701 5697 5693 5690 5689 5688 5687 5684 5682 5681 5679 5678 5676 5674 5672 5670 5667 5665 5663 5662 5659 5656 5654 5652 5650 5647 5645 5642 5640 5637 5634 5631 5629 5626 5623 5620 5618 5615 5613 5610 5607 5604 5601 5598
5742 5740 5743 5742 5739 5741 5741 5741 5742 5740 5738 5737 5737 5738 5737 5733 5730 5728 5725 5726 5724 5717 5715 5714 5709 5707 5705 5702 5703 5706 5708 5713 5717 5717 5717 5715 5713 5710 5707 5704 5702 5698 5694 5690 5686 5684 5683 5682 5680 5677 5675 5674 5673 5671 5669 5667 5665 5663 5660 5658 5656 5654 5652 5649 5647 5645 5642 5640 5637 5635 5632 5629 5626 5624 5621 5618 5615 5612 5610 5608 5605 5602 5599 5595 5592 5589
5736 5732 5734 5735 5731 5732 5734 5733 5731 5730 5730 5730 5731 5731 5729 5724 5722 5722 5719 5718 5717 5712 5707 5709 5707 5698 5695 5697 5699 5701 5705 5707 5710 5710 5707 5705 5703 5701 5700 5698 5695 5691 5687 5683 5680 5679 5678 5676 5673 5670 5669 5668 5666 5664 5662 5659 5657 5655 5653 5651 5649 5647 5644 5642 5639 5637 5634 5632 5630 5627 5624 5622 5619 5616 5613 5610 5608 5605 5602 5599 5597 5594 5591 5587 5584 5581
5728 5723 5723 5726 5725 5725 5725 5723 5723 5724 5725 5723 5722 5721 5719 5716 5714 5713 5713 5711 5710 5706 5701 5703 5700 5688 5685 5692 5693 5697 5705 5706 5705 5704 5699 5695 5693 5692 5691 5690 5687 5683 5678 5675 5674 5672 5670 5667 5665 5663 5661 5660 5659 5657 5655 5652 5650 5648 5646 5644 5642 5639 5637 5634 5631 5629 5626 5624 5621 5619 5617 5614 5611 5608 5606 5603 5600 5597 5594 5591 5589 5586 5582 5579 5575 5572
5718 5714 5714 5717 5717 5716 5716 5717 5718 5719 5716 5713 5712 5711 5709 5709 5707 5705 5704 5704 5702 5699 5697 5697 5691 5679 5677 5682 5684 5692 5702 5702 5699 5698 5692 5688 5686 5684 5682 5680 5678 5674 5670 5668 5666 5663 5661 5659 5656 5655 5653 5652 5651 5649 5647 5645 5643 5641 5639 5636 5634 5632 5629 5626 5623 5621 5618 5616 5613 5611 5609 5607 5604 5601 5598 5595 5592 5589 5586 5583 5581 5577 5574 5570 5567 5564
5708 5704 5703 5705 5706 5707 5710 5712 5710 5708 5705 5703 5702 5702 5702 5702 5701 5695 5692 5696 5695 5692 5691 5689 5681 5674 5673 5675 5679 5688 5693 5692 5692 5690 5685 5682 5678 5676 5675 5672 5669 5666 5663 5661 5658 5655 5653 5651 5649 5647 5646 5645 5643 5642 5640 5638 5636 5633 5631 5629 5626 5624 5621 5618 5615 5613 5610 5608 5606 5604 5602 5599 5596 5593 5590 5587 5584 5581 5578 5576 5573 5569 5566 5563 5559 5555
5699 5693 5692 5693 5696 5700 5703 5703 5700 5696 5694 5693 5691 5695 5696 5695 5693 5687 5683 5688 5687 5682 5681 5676 5668 5668 5672 5674 5682 5687 5685 5684 5684 5681 5678 5675 5670 5668 5666 5663 5660 5658 5656 5653 5650 5648 5647 5645 5643 5641 5639 5638 5636 5635 5633 5630 5629 5626 5624 5621 5618 5616 5613 5610 5607 5605 5602 5600 5598 5596 5594 5590 5587 5584 5581 5578 5575 5573 5571 5568 5565 5561 5558 5554 5550 5546
5690 5683 5683 5683 5685 5690 5692 5692 5690 5686 5683 5682 5684 5689 5689 5685 5686 5681 5676 5677 5674 5671 5671 5663 5653 5660 5670 5675 5683 5684 5680 5678 5678 5675 5672 5667 5663 5662 5659 5655 5653 5650 5648 5645 5643 5642 5640 5637 5636 5634 5633 5632 5630 5628 5625 5623 5621 5619 5616 5613 5610 5607 5605 5602 5599 5597 5595 5593 5591 5588 5585 5582 5579 5576 5573 5570 5568 5565 5563 5559 5556 5552 5549 5545 5541 5537
5681 5676 5676 5675 5673 5676 5680 5679 5678 5677 5676 5677 5678 5680 5677 5676 5676 5671 5667 5666 5658 5658 5662 5651 5640 5651 5666 5673 5677 5677 5672 5672 5672 5669 5665 5660 5657 5655 5651 5647 5645 5643 5640 5638 5636 5635 5633 5630 5629 5628 5626 5625 5623 5620 5618 5616 5614 5611 5608 5606 5602 5600 5597 5594 5591 5589 5587 5585 5583 5580 5578 5574 5571 5568 5565 5563 5560 5557 5554 5551 5547 5543 5540 5536 5532 5527
5670 5667 5667 5665 5661 5661 5665 5668 5670 5670 5668 5667 5669 5669 5667 5667 5666 5661 5659 5654 5644 5644 5650 5641 5631 5640 5657 5665 5667 5666 5664 5664 5665 5660 5655 5653 5649 5645 5642 5640 5638 5635 5632 5631 5629 5627 5625 5623 5622 5621 5620 5618 5615 5612 5610 5608 5606 5603 5601 5598 5595 5592 5589 5587 5584 5582 5580 5578 5575 5573 5570 5566 5563 5560 5558 5555 5552 5549 5545 5541 5538 5534 5530 5527 5522 5517
5657 5655 5655 5654 5650 5649 5653 5659 5664 5662 5656 5655 5658 5659 5658 5658 5657 5653 5648 5641 5635 5633 5634 5635 5632 5631 5643 5654 5655 5655 5656 5655 5655 5651 5645 5644 5640 5635 5634 5632 5629 5627 5625 5623 5622 5619 5617 5617 5616 5614 5613 5610 5607 5605 5603 5601 5598 5596 5593 5591 5588 5585 5582 5579 5577 5574 5572 5570 5567 5564 5562 5559 5556 5553 5550 5547 5544 5541 5537 5533 5529 5525 5521 5517 5512 5507
5644 5640 5643 5643 5640 5641 5644 5649 5654 5651 5644 5644 5647 5647 5648 5649 5647 5643 5635 5630 5631 5624 5618 5630 5636 5625 5627 5641 5644 5645 5649 5647 5644 5641 5637 5634 5631 5627 5625 5623 5621 5619 5617 5616 5613 5611 5610 5610 5609 5607 5605 5602 5600 5598 5595 5593 5590 5588 5586 5583 5580 5577 5574 5572 5569 5567 5564 5562 5560 5557 5554 5551 5548 5545 5542 5539 5537 5533 5528 5524 5520 5516 5512 5507 5502 5497
5632 5627 5632 5633 5629 5632 5635 5638 5642 5640 5634 5634 5636 5636 5639 5641 5638 5633 5626 5624 5625 5615 5609 5623 5629 5618 5618 5629 5633 5636 5638 5635 5633 5631 5628 5625 5622 5619 5616 5614 5613 5611 5609 5608 5606 5604 5604 5603 5601 5599 5596 5594 5592 5590 5587 5585 5583 5581 5578 5575 5573 5569 5567 5564 5561 5559 5557 5554 5552 5549 5546 5543 5540 5537 5535 5532 5529 5524 5520 5516 5511 5507 5503 5498 5493 5488
5621 5617 5623 5625 5619 5621 5625 5627 5630 5628 5623 5623 5626 5626 5630 5633 5629 5623 5619 5619 5618 5608 5606 5613 5612 5607 5614 5622 5624 5626 5626 5623 5622 5621 5619 5616 5614 5610 5606 5603 5603 5603 5602 5601 5599 5598 5597 5594 5592 5590 5588 5587 5584 5582 5580 5578 5575 5573 5570 5568 5565 5562 5559 5556 5554 5552 5549 5547 5544 5541 5538 5535 5532 5530 5527 5524 5520 5516 5511 5507 5502 5498 5493 5489 5484 5478
5612 5609 5614 5617 5608 5605 5613 5619 5619 5617 5611 5609 5612 5616 5621 5623 5619 5614 5614 5617 5613 5604 5602 5602 5594 5595 5610 5617 5614 5613 5613 5612 5611 5610 5610 5609 5606 5600 5594 5594 5595 5594 5593 5593 5592 5590 5588 5585 5583 5582 5581 5579 5576 5574 5572 5570 5567 5565 5562 5560 5557 5554 5552 5549 5547 5545 5542 5539 5536 5533 5531 5528 5525 5522 5519 5515 5511 5507 5502 5498 5493 5489 5484 5479 5474 5469
5604 5601 5605 5607 5594 5590 5605 5611 5607 5604 5597 5591 5598 5609 5615 5614 5610 5608 5609 5609 5605 5598 5595 5592 5585 5588 5602 5607 5603 5602 5603 5601 5600 5600 5600 5599 5596 5589 5585 5586 5588 5587 5585 5584 5583 5581 5579 5577 5576 5575 5573 5570 5568 5566 5564 5562 5559 5557 5554 5552 5549 5547 5544 5542 5540 5537 5534 5532 5529 5526 5523 5520 5517 5514 5510 5506 5502 5497 5493 5489 5485 5480 5475 5470 5465 5460
5596 5593 5595 5595 5582 5582 5597 5599 5594 5591 5579 5575 5592 5606 5607 5605 5603 5601 5600 5598 5596 5591 5586 5582 5581 5587 5595 5596 5592 5593 5593 5589 5587 5588 5589 5587 5583 5578 5577 5580 5581 5579 5577 5574 5573 5573 5571 5570 5569 5567 5564 5562 5560 5558 5556 5554 5551 5548 5546 5543 5541 5539 5536 5534 5532 5530 5527 5525 5522 5519 5516 5512 5509 5505 5501 5497 5492 5488 5484 5480 5476 5471 5466 5461 5456 5451
5588 5585 5585 5584 5575 5574 5586 5589 5581 5569 5560 5571 5594 5600 5594 5595 5595 5591 5589 5590 5589 5584 5578 5576 5580 5586 5588 5588 5586 5583 5579 5575 5574 5576 5578 5576 5570 5568 5571 5574 5571 5569 5568 5567 5566 5565 5563 5562 5561 5558 5556 5554 5552 5551 5548 5546 5543 5540 5537 5535 5532 5530 5528 5527 5525 5522 5520 5517 5514 5511 5507 5503 5500 5496 5492 5488 5484 5480 5476 5472 5468 5463 5457 5452 5447 5443
5580 5578 5575 5575 5568 5565 5573 5576 5561 5549 5556 5575 5588 5589 5586 5586 5585 5580 5578 5581 5582 5577 5573 5573 5576 5581 5581 5581 5580 5573 5565 5563 5563 5566 5570 5567 5560 5558 5562 5565 5563 5560 5560 5560 5558 5556 5554 5553 5552 5549 5548 5546 5545 5543 5540 5537 5535 5532 5529 5527 5525 5523 5522 5520 5517 5515 5512 5508 5505 5501 5498 5494 5491 5487 5483 5480 5476 5472 5468 5463 5459 5454 5448 5443 5438 5434
5571 5569 5566 5564 5559 5555 5558 5556 5545 5543 5557 5567 5573 5581 5583 5579 5576 5571 5566 5568 5572 5570 5570 5571 5572 5573 5573 5572 5569 5562 5555 5554 5556 5561 5565 5559 5551 5549 5552 5555 5555 5552 5551 5551 5549 5548 5546 5544 5542 5541 5539 5537 5536 5534 5532 5529 5527 5524 5522 5520 5518 5517 5515 5512 5509 5506 5503 5499 5496 5492 5489 5485 5482 5478 5475 5471 5467 5463 5459 5455 5450 5445 5440 5435 5429 5425
5563 5559 5556 5552 5547 5546 5543 5538 5535 5537 5541 5552 5566 5578 5578 5571 5568 5562 5550 5552 5562 5567 5568 5569 5565 5563 5564 5562 5558 5554 5548 5545 5548 5557 5561 5552 5542 5542 5543 5545 5546 5544 5543 5542 5540 5539 5537 5534 5533 5532 5530 5528 5527 5525 5523 5521 5519 5517 5515 5513 5511 5509 5506 5503 5500 5497 5494 5490 5487 5483 5480 5477 5473 5470 5467 5463 5459 5455 5450 5446 5441 5436 5432 5427 5421 5416
5552 5549 5548 5540 5533 5535 5533 5526 5525 5521 5523 5544 5564 5571 5570 5564 5557 5549 5536 5535 5553 5567 5568 5562 5555 5553 5555 5552 5549 5546 5539 5535 5539 5551 5554 5545 5536 5535 5535 5536 5536 5534 5533 5532 5530 5529 5527 5525 5524 5523 5521 5520 5519 5517 5516 5514 5512 5510 5508 5505 5502 5500 5497 5494 5491 5488 5484 5481 5478 5475 5472 5469 5466 5462 5458 5454 5450 5446 5441 5437 5432 5428 5424 5419 5414 5408
5540 5538 5539 5530 5522 5524 5522 5515 5512 5508 5514 5538 5556 5562 5565 5556 5545 5538 5522 5520 5547 5569 5565 5553 5545 5544 5546 5545 5542 5536 5529 5525 5531 5541 5543 5535 5530 5530 5529 5528 5527 5525 5524 5523 5521 5519 5518 5516 5515 5514 5512 5512 5511 5510 5508 5505 5503 5501 5498 5496 5493 5490 5487 5484 5481 5478 5475 5472 5470 5467 5464 5461 5457 5454 5450 5446 5442 5437 5433 5429 5424 5419 5415 5410 5405 5400
5528 5525 5525 5517 5511 5514 5511 5502 5499 5499 5507 5529 5546 5553 5554 5546 5537 5524 5505 5513 5550 5565 5554 5544 5540 5537 5539 5538 5533 5527 5521 5518 5521 5527 5530 5525 5522 5523 5522 5520 5519 5517 5516 5514 5511 5510 5508 5507 5506 5504 5503 5502 5500 5500 5498 5495 5493 5491 5488 5486 5483 5480 5477 5474 5471 5469 5466 5463 5461 5458 5455 5452 5448 5445 5441 5437 5433 5429 5425 5421 5416 5411 5407 5402 5397 5392
5516 5512 5508 5503 5500 5503 5500 5490 5487 5489 5498 5519 5535 5539 5536 5529 5518 5505 5501 5522 5547 5547 5538 5537 5533 5530 5532 5529 5523 5519 5516 5512 5511 5513 5516 5516 5514 5514 5513 5510 5509 5508 5506 5504 5502 5499 5498 5497 5496 5494 5493 5492 5490 5489 5488 5485 5483 5480 5478 5476 5473 5470 5468 5465 5462 5460 5457 5454 5452 5449 5446 5443 5439 5435 5432 5428 5425 5421 5417 5413 5409 5403 5399 5394 5389 5384
5503 5499 5495 5493 5491 5490 5487 5482 5477 5475 5487 5511 5524 5521 5514 5504 5495 5497 5509 5526 5530 5524 5525 5527 5522 5522 5522 5518 5514 5512 5509 5506 5505 5503 5504 5504 5505 5506 5503 5500 5499 5498 5497 5495 5492 5489 5488 5487 5486 5484 5483 5482 5481 5480 5478 5476 5473 5471 5469 5466 5464 5461 5459 5456 5453 5451 5448 5445 5443 5440 5437 5434 5430 5426 5423 5419 5416 5412 5409 5405 5401 5396 5391 5386 5381 5377
5490 5487 5482 5481 5484 5483 5476 5471 5467 5466 5482 5505 5510 5501 5492 5486 5488 5498 5507 5510 5509 5509 5512 5512 5511 5513 5511 5506 5505 5503 5499 5499 5499 5496 5495 5493 5494 5496 5493 5491 5490 5488 5487 5485 5482 5479 5478 5477 5476 5475 5475 5475 5474 5472 5470 5468 5465 5463 5460 5457 5455 5452 5449 5447 5444 5441 5439 5436 5434 5431 5428 5425 5421 5418 5414 5411 5407 5404 5400 5396 5393 5388 5384 5379 5374 5369
5472 5474 5471 5470 5475 5474 5463 5457 5461 5468 5481 5491 5489 5484 5481 5479 5486 5495 5495 5493 5495 5498 5498 5498 5499 5500 5498 5495 5493 5491 5489 5490 5489 5488 5487 5484 5483 5484 5482 5481 5481 5478 5476 5474 5471 5470 5469 5467 5467 5467 5467 5467 5465 5462 5460 5458 5455 5453 5450 5447 5445 5442 5439 5437 5434 5432 5430 5427 5424 5422 5418 5415 5412 5408 5405 5402 5399 5395 5392 5388 5384 5380 5376 5371 5367 5362
5456 5464 5467 5462 5459 5457 5451 5451 5458 5466 5472 5473 5472 5475 5478 5476 5479 5483 5482 5481 5484 5486 5487 5487 5486 5486 5487 5483 5481 5480 5480 5480 5480 5479 5479 5476 5474 5472 5470 5470 5470 5467 5465 5463 5461 5460 5459 5458 5458 5458 5456 5455 5454 5451 5449 5447 5444 5442 5440 5437 5434 5431 5429 5427 5425 5422 5421 5418 5416 5413 5409 5406 5403 5399 5397 5394 5390 5387 5384 5380 5376 5372 5368 5364 5359 5355
5450 5457 5458 5451 5446 5443 5441 5445 5453 5457 5460 5461 5461 5464 5468 5469 5469 5469 5467 5468 5472 5475 5477 5475 5472 5474 5474 5471 5470 5470 5470 5470 5470 5469 5469 5468 5466 5463 5462 5460 5458 5456 5455 5453 5451 5450 5449 5449 5449 5448 5447 5445 5443 5441 5439 5436 5434 5432 5430 5427 5424 5421 5419 5417 5415 5413 5412 5409 5407 5404 5400 5397 5394 5391 5388 5385 5381 5378 5376 5372 5369 5365 5360 5356 5351 5347
5443 5446 5442 5439 5438 5435 5431 5436 5447 5450 5450 5453 5452 5451 5453 5455 5456 5458 5457 5456 5458 5461 5462 5461 5460 5460 5460 5459 5460 5460 5460 5461 5460 5458 5459 5459 5456 5454 5454 5451 5448 5447 5444 5442 5441 5440 5439 5440 5440 5440 5438 5436 5434 5432 5429 5426 5424 5422 5419 5417 5414 5412 5410 5408 5406 5405 5403 5401 5398 5395 5391 5389 5386 5383 5380 5376 5373 5370 5367 5364 5361 5357 5353 5348 5344 5340
5432 5432 5429 5427 5427 5425 5422 5429 5438 5440 5439 5441 5440 5438 5439 5441 5443 5447 5447 5445 5444 5445 5446 5448 5448 5447 5447 5448 5448 5448 5449 5450 5449 5448 5448 5448 5445 5444 5444 5442 5440 5438 5435 5433 5433 5431 5430 5431 5431 5430 5429 5426 5424 5423 5420 5417 5415 5412 5410 5408 5406 5403 5401 5400 5398 5397 5395 5392 5389 5386 5383 5380 5378 5375 5372 5368 5365 5362 5359 5356 5353 5350 5346 5342 5337 5334
5419 5418 5417 5418 5416 5413 5415 5422 5427 5428 5428 5430 5430 5428 5430 5432 5432 5433 5433 5431 5430 5429 5430 5433 5435 5435 5434 5434 5435 5435 5435 5436 5439 5438 5436 5435 5435 5434 5433 5432 5431 5429 5426 5426 5425 5423 5422 5422 5420 5419 5418 5416 5414 5412 5410 5408 5405 5403 5402 5400 5397 5395 5393 5392 5390 5388 5385 5383 5379 5376 5374 5372 5369 5366 5364 5361 5358 5355 5351 5348 5345 5342 5338 5335 5331 5327
5407 5404 5408 5411 5404 5401 5408 5415 5417 5414 5411 5415 5420 5420 5421 5422 5419 5417 5418 5418 5416 5415 5416 5418 5420 5421 5421 5422 5423 5423 5421 5422 5426 5426 5423 5422 5423 5423 5422 5421 5419 5418 5418 5417 5415 5414 5413 5412 5410 5409 5407 5405 5404 5402 5400 5398 5396 5394 5393 5391 5389 5387 5385 5383 5381 5379 5376 5373 5370 5367 5365 5363 5361 5358 5356 5353 5351 5348 5344 5340 5337 5333 5330 5327 5324 5320
5396 5395 5399 5398 5392 5391 5398 5404 5403 5398 5394 5398 5405 5406 5405 5405 5403 5401 5402 5403 5402 5403 5405 5404 5404 5405 5406 5408 5410 5409 5407 5408 5411 5411 5409 5408 5409 5409 5408 5407 5407 5407 5407 5406 5404 5404 5402 5400 5399 5398 5397 5395 5394 5392 5390 5389 5387 5386 5384 5383 5380 5379 5377 5374 5372 5370 5367 5365 5362 5359 5357 5355 5352 5350 5348 5345 5343 5340 5337 5334 5331 5327 5323 5320 5317 5314